weather.gov     
National Weather Service

Regional Weather Roundup
NWS Homepage
This page is being discontinued on March 12, 2014.
The same data is available at this site. Please update your bookmarks.
Thank you, and we apologize for the inconvenience.
Please send an email to SR-SRH.Webmaster@noaa.gov with any concerns.


Current Version
Previous Version:    01  02  03  04  05  06  07  08  09  10  11  12  13  14  15  16  17  18  19  20  21  22  23  24  25  26  27  28  29  30  
   31  32  33  34  35  36  37  38  39  40  41  42  43  44  45  46  47  48  49  50  51  52  53  
[Printable]
435
ASCA42 TJSJ 221311
RWRPR
PUERTO RICO/U.S. VIRGIN ISLANDS HOURLY WEATHER ROUNDUP
NATIONAL WEATHER SERVICE SAN JUAN PR
900 AM AST WED OCT 22 2014

PRZ001-004-221400-
PUERTO RICO

CITY           SKY/WX    TMP DP  RH WIND       PRES   REMARKS
SAN JUAN LMM   MOSUNNY   84  75  74 E10       29.99R HX  92
MAYAGUEZ       MOSUNNY   79  68  69 E5        29.99
AGUADILLA      SUNNY     82  70  65 SE7       30.00R
CEIBA          MOSUNNY   86  73  66 E6        30.02R HX  93
$$

PRZ006-007-221400-
U.S. VIRGIN ISLANDS

CITY           SKY/WX    TMP DP  RH WIND       PRES   REMARKS
CHRISTIANSTED  MOSUNNY   86  73  66 E14       30.00R HX  93
$$

HOURLY WEATHER ROUNDUP FOR THE NEWS MEDIA

CITY           SKY/WX    TMP DP  RH WIND       PRES   REMARKS
MIAMI          CLOUDY    77  72  84 NE5       29.97R
ORLANDO        SUNNY     73  64  73 N6        29.99R
NEW YORK       LGT RAIN  55  52  88 N17       29.93R
NEWARK         LGT RAIN  54  52  93 N20G26    29.93R
CHICAGO        PTCLDY    43  39  86 N6        30.34R
HARTFORD       CLOUDY    57  55  93 NE14G21   29.94S
BOSTON         LGT RAIN  55  53  93 NE22G28   30.02R FOG
DALLAS         PTCLDY    65  61  87 E8        30.13R
PHILADELPHIA   CLOUDY    58  52  80 NE18      29.87S




U.S. Dept. of Commerce
NOAA National Weather Service
1325 East West Highway
Silver Spring, MD 20910
E-mail: w-nws.webmaster@noaa.gov
Page last modified: May 16, 2007
NATIONAL WEATHER SERVICE: for Safety, for Work, for Fun - FOR LIFE